CW6265 Weather Reports


time (UTC)temp
C
wind
direction
speed
KPH
gust
KPH
rain 1hr
cm
rain 24hr
cm
rain mn
cm
humidity
%
barometer
mb
20260508213831 18 172 1.6 4.8 0.00 0.00 0.00 32 1007.0
20260508213319 18 153 1.6 6.4 0.00 0.00 0.00 34 1006.9
20260508212826 18 161 1.6 6.4 0.00 0.00 0.00 39 1007.0
20260508212335 18 163 3.2 6.4 0.00 0.00 0.00 36 1007.0
20260508211836 18 167 3.2 6.4 0.00 0.00 0.00 35 1007.1
20260508211340 18 219 1.6 8.0 0.00 0.00 0.00 38 1007.2
20260508210817 18 205 3.2 9.7 0.00 0.00 0.00 36 1007.2
20260508210325 18 250 3.2 9.7 0.00 0.00 0.00 36 1007.3
20260508205828 18 128 3.2 8.0 0.00 0.00 0.00 34 1007.3
20260508205343 18 194 1.6 9.7 0.00 0.00 0.00 33 1007.3
20260508204814 18 211 1.6 9.7 0.00 0.00 0.00 34 1007.4
20260508204322 18 220 3.2 8.0 0.00 0.00 0.00 34 1007.4
20260508203832 18 200 1.6 6.4 0.00 0.00 0.00 31 1007.5
20260508203331 18 175 0.0 6.4 0.00 0.00 0.00 31 1007.6
20260508202821 19 175 3.2 6.4 0.00 0.00 0.00 36 1007.6
20260508202329 19 176 1.6 6.4 0.00 0.00 0.00 37 1007.7
20260508201901 19 156 1.6 8.0 0.00 0.00 0.00 34 1007.7
20260508201342 19 177 3.2 9.7 0.00 0.00 0.00 35 1007.9
20260508200824 19 203 3.2 9.7 0.00 0.00 0.00 41 1007.9
20260508200342 19 158 3.2 6.4 0.00 0.00 0.00 41 1008.0
20260508195845 18 194 3.2 8.0 0.00 0.00 0.00 42 1008.1
20260508195356 19 109 3.2 8.0 0.00 0.00 0.00 41 1008.2
20260508194844 18 157 4.8 8.0 0.00 0.00 0.00 44 1008.3
20260508194338 18 270 3.2 11.3 0.00 0.00 0.00 41 1008.4
20260508193819 18 140 3.2 11.3 0.00 0.00 0.00 44 1008.4
20260508193352 18 145 3.2 8.0 0.00 0.00 0.00 38 1008.4
20260508192839 18 167 4.8 9.7 0.00 0.00 0.00 41 1008.4
20260508192350 18 167 4.8 9.7 0.00 0.00 0.00 44 1008.4
20260508191817 18 165 3.2 9.7 0.00 0.00 0.00 45 1008.5
20260508191326 18 161 3.2 8.0 0.00 0.00 0.00 42 1008.5
20260508190831 18 141 3.2 8.0 0.00 0.00 0.00 41 1008.5
20260508190323 18 120 3.2 8.0 0.00 0.00 0.00 43 1008.6
20260508185827 18 215 4.8 8.0 0.00 0.00 0.00 47 1008.7
20260508185331 18 178 1.6 8.0 0.00 0.00 0.00 47 1008.7
20260508184838 18 162 3.2 8.0 0.00 0.00 0.00 48 1008.7
20260508184330 18 165 3.2 8.0 0.00 0.00 0.00 44 1008.7
20260508183824 18 197 3.2 8.0 0.00 0.00 0.00 46 1008.8
20260508183335 18 153 3.2 9.7 0.00 0.00 0.00 45 1008.8
20260508182817 18 175 3.2 8.0 0.00 0.00 0.00 46 1008.9
20260508182331 18 239 1.6 6.4 0.00 0.00 0.00 48 1008.9
20260508181822 18 178 4.8 9.7 0.00 0.00 0.00 44 1009.0
20260508181356 18 240 3.2 8.0 0.00 0.00 0.00 46 1008.9
20260508180822 18 220 3.2 11.3 0.00 0.00 0.00 47 1009.0
20260508180331 18 220 4.8 11.3 0.00 0.00 0.00 49 1009.2
20260508175842 18 128 3.2 9.7 0.00 0.00 0.00 47 1009.2
20260508175331 18 145 4.8 8.0 0.00 0.00 0.00 44 1009.3
20260508174834 18 131 1.6 4.8 0.00 0.00 0.00 38 1009.2
20260508174405 18 167 1.6 8.0 0.00 0.00 0.00 40 1009.3
20260508173822 18 173 4.8 8.0 0.00 0.00 0.00 41 1009.4
20260508173327 19 208 3.2 6.4 0.00 0.00 0.00 42 1009.5
20260508172834 19 217 3.2 6.4 0.00 0.00 0.00 45 1009.5
20260508172343 19 156 3.2 6.4 0.00 0.00 0.00 41 1009.6
20260508171824 19 156 3.2 9.7 0.00 0.00 0.00 41 1009.7
20260508171334 19 167 3.2 9.7 0.00 0.00 0.00 39 1009.7
20260508170834 18 219 1.6 11.3 0.00 0.00 0.00 37 1009.7
20260508170319 18 156 4.8 11.3 0.00 0.00 0.00 38 1009.8
20260508165819 18 182 1.6 8.0 0.00 0.00 0.00 41 1009.8
20260508165321 18 263 3.2 6.4 0.00 0.00 0.00 38 1009.8
20260508164853 18 194 1.6 6.4 0.00 0.00 0.00 40 1009.9
20260508164320 18 203 3.2 6.4 0.00 0.00 0.00 44 1010.0
20260508163827 17 219 1.6 8.0 0.00 0.00 0.00 45 1010.0
20260508163329 17 228 4.8 9.7 0.00 0.00 0.00 44 1010.1
20260508162907 17 177 3.2 9.7 0.00 0.00 0.00 46 1010.3
20260508162354 17 180 3.2 8.0 0.00 0.00 0.00 46 1010.2
20260508161858 17 171 3.2 9.7 0.00 0.00 0.00 46 1010.2
20260508161319 17 176 3.2 9.7 0.00 0.00 0.00 48 1010.3
20260508160855 16 223 4.8 11.3 0.00 0.00 0.00 51 1010.3
20260508160337 16 164 3.2 11.3 0.00 0.00 0.00 47 1010.3
20260508155819 16 141 4.8 11.3 0.00 0.00 0.00 48 1010.3
20260508155324 16 170 3.2 6.4 0.00 0.00 0.00 49 1010.4
20260508154829 15 261 3.2 6.4 0.00 0.00 0.00 50 1010.4
20260508154335 15 161 3.2 6.4 0.00 0.00 0.00 51 1010.3
20260508153820 15 132 3.2 6.4 0.00 0.00 0.00 54 1010.2
20260508153359 15 165 1.6 6.4 0.00 0.00 0.00 53 1010.2
20260508152825 14 155 1.6 8.0 0.00 0.00 0.00 57 1010.1
20260508152334 13 195 3.2 8.0 0.00 0.00 0.00 58 1010.2
20260508151833 13 192 1.6 4.8 0.00 0.00 0.00 58 1010.1
20260508151359 13 161 3.2 8.0 0.00 0.00 0.00 64 1010.1
20260508150819 12 167 6.4 8.0 0.00 0.00 0.00 65 1010.2
20260508150324 12 136 1.6 6.4 0.00 0.00 0.00 65 1010.2
20260508145834 12 173 3.2 4.8 0.00 0.00 0.00 66 1010.3
20260508145319 11 200 1.6 4.8 0.00 0.00 0.00 65 1010.4
20260508144851 11 197 1.6 3.2 0.00 0.00 0.00 69 1010.4
20260508144318 11 203 0.0 4.8 0.00 0.00 0.00 75 1010.5
20260508143854 10 360 1.6 6.4 0.00 0.00 0.00 80 1010.4
20260508143316 10 261 1.6 6.4 0.00 0.00 0.00 82 1010.5
20260508142830 10 155 1.6 3.2 0.00 0.00 0.00 86 1010.5
20260508142339 10 156 0.0 8.0 0.00 0.00 0.00 88 1010.5
20260508141820 9 156 3.2 8.0 0.00 0.00 0.00 89 1010.5
20260508141322 9 154 1.6 4.8 0.00 0.00 0.00 91 1010.4
20260508140824 8 154 1.6 4.8 0.00 0.00 0.00 91 1010.6
20260508140357 8 155 1.6 4.8 0.00 0.00 0.00 91 1010.6
20260508135839 8 155 3.2 4.8 0.00 0.00 0.00 91 1010.7
20260508135345 8 140 0.0 6.4 0.00 0.00 0.00 92 1010.8
20260508134828 7 140 1.6 6.4 0.00 0.00 0.00 91 1010.9
20260508134340 7 222 3.2 6.4 0.00 0.00 0.00 91 1010.8
20260508133843 7 180 1.6 4.8 0.00 0.00 0.00 91 1010.8
20260508133328 6 180 1.6 4.8 0.00 0.00 0.00 91 1010.8
20260508132827 6 180 1.6 4.8 0.00 0.00 0.00 91 1010.8
20260508132338 6 180 0.0 3.2 0.00 0.00 0.00 91 1010.8
20260508131824 6 180 0.0 3.2 0.00 0.00 0.00 91 1010.8
20260508131333 5 180 1.6 3.2 0.00 0.00 0.00 91 1010.9
20260508130821 5 180 1.6 3.2 0.00 0.00 0.00 91 1010.9
20260508130352 5 180 0.0 3.2 0.00 0.00 0.00 91 1010.9
20260508125830 5 180 0.0 3.2 0.00 0.00 0.00 90 1010.9
20260508125336 5 180 1.6 3.2 0.00 0.00 0.00 90 1011.0
20260508124823 4 180 0.0 3.2 0.00 0.00 0.00 90 1011.0
20260508124338 4 180 0.0 1.6 0.00 0.00 0.00 90 1011.0
20260508123819 3 180 0.0 1.6 0.00 0.00 0.00 89 1011.1
20260508123351 3 180 0.0 1.6 0.00 0.00 0.00 89 1011.1
20260508122836 3 180 0.0 0.0 0.00 0.00 0.00 88 1011.0
20260508122326 3 180 0.0 0.0 0.00 0.00 0.00 88 1010.9
20260508121834 3 180 0.0 0.0 0.00 0.00 0.00 87 1010.9
20260508121337 2 180 0.0 0.0 0.00 0.00 0.00 87 1010.9
20260508120829 2 180 0.0 0.0 0.00 0.00 0.00 86 1010.8
20260508120319 2 180 0.0 0.0 0.00 0.00 0.00 86 1010.8
20260508115850 2 180 0.0 0.0 0.00 0.00 0.00 86 1010.7
20260508115332 2 180 0.0 0.0 0.00 0.00 0.00 85 1010.7
20260508114820 2 180 0.0 0.0 0.00 0.00 0.00 85 1010.7
20260508114320 2 180 0.0 0.0 0.00 0.00 0.00 85 1010.6
20260508113819 2 180 0.0 0.0 0.00 0.00 0.00 85 1010.5
20260508113335 2 180 0.0 1.6 0.00 0.00 0.00 84 1010.4
20260508112834 2 180 0.0 1.6 0.00 0.00 0.00 84 1010.4
20260508112318 2 180 0.0 0.0 0.00 0.00 0.00 84 1010.4
20260508111821 2 180 0.0 0.0 0.00 0.00 0.00 84 1010.4
20260508111327 2 180 0.0 0.0 0.00 0.00 0.00 84 1010.4
20260508110836 2 180 0.0 0.0 0.00 0.00 0.00 84 1010.4
20260508110326 2 180 0.0 0.0 0.00 0.00 0.00 84 1010.4
20260508105826 2 180 0.0 0.0 0.00 0.00 0.00 83 1010.4
20260508105345 2 180 0.0 0.0 0.00 0.00 0.00 83 1010.5
20260508104823 2 180 0.0 0.0 0.00 0.00 0.00 83 1010.4
20260508104355 2 180 0.0 0.0 0.00 0.00 0.00 83 1010.4
20260508103824 2 180 0.0 0.0 0.00 0.00 0.00 83 1010.4
20260508103327 2 180 0.0 0.0 0.00 0.00 0.00 83 1010.3
20260508102829 2 180 0.0 0.0 0.00 0.00 0.00 83 1010.4
20260508102333 2 180 0.0 0.0 0.00 0.00 0.00 83 1010.3
20260508101817 2 180 0.0 0.0 0.00 0.00 0.00 83 1010.2
20260508101328 2 180 0.0 0.0 0.00 0.00 0.00 82 1010.2
20260508100831 2 180 0.0 0.0 0.00 0.00 0.00 83 1010.1
20260508100337 2 180 0.0 0.0 0.00 0.00 0.00 82 1010.2
20260508095841 2 180 0.0 0.0 0.00 0.00 0.00 82 1010.2
20260508095343 2 180 0.0 0.0 0.00 0.00 0.00 82 1010.2
20260508094826 3 180 0.0 0.0 0.00 0.00 0.00 82 1010.2
20260508094335 3 180 0.0 0.0 0.00 0.00 0.00 82 1010.2
20260508093819 3 180 0.0 0.0 0.00 0.00 0.00 82 1010.2
20260508093325 3 180 0.0 0.0 0.00 0.00 0.00 82 1010.3
20260508092829 3 180 0.0 0.0 0.00 0.00 0.00 82 1010.3
20260508092342 3 180 0.0 0.0 0.00 0.00 0.00 82 1010.3
20260508091848 3 180 0.0 0.0 0.00 0.00 0.00 82 1010.4
20260508091402 3 180 0.0 0.0 0.00 0.00 0.00 82 1010.3
20260508090844 3 180 0.0 0.0 0.00 0.00 0.00 82 1010.4
20260508090355 3 180 0.0 0.0 0.00 0.00 0.00 82 1010.4
20260508085841 3 180 0.0 0.0 0.00 0.00 0.00 82 1010.4
20260508085349 3 180 0.0 0.0 0.00 0.00 0.00 82 1010.4
20260508084834 3 180 0.0 0.0 0.00 0.00 0.00 82 1010.5
20260508084340 3 180 0.0 0.0 0.00 0.00 0.00 82 1010.4
20260508083820 3 180 0.0 0.0 0.00 0.00 0.00 82 1010.4
20260508083324 3 180 0.0 0.0 0.00 0.00 0.00 82 1010.5
20260508082857 3 180 0.0 0.0 0.00 0.00 0.00 82 1010.5
20260508082320 3 180 0.0 0.0 0.00 0.00 0.00 82 1010.4
20260508081816 3 180 0.0 1.6 0.00 0.00 0.00 82 1010.5
20260508081320 3 180 0.0 1.6 0.00 0.00 0.00 82 1010.6
20260508080823 3 180 0.0 0.0 0.00 0.00 0.00 81 1010.6
20260508080337 3 180 0.0 0.0 0.00 0.00 0.00 81 1010.6
20260508075820 3 180 0.0 0.0 0.00 0.00 0.00 81 1010.6
20260508075327 3 180 0.0 0.0 0.00 0.00 0.00 81 1010.5
20260508074828 4 180 0.0 0.0 0.00 0.00 0.00 81 1010.5
20260508074335 4 180 0.0 0.0 0.00 0.00 0.00 81 1010.6
20260508073835 4 180 0.0 0.0 0.00 0.00 0.00 81 1010.6
20260508073352 4 180 0.0 0.0 0.00 0.00 0.00 81 1010.6
20260508072834 4 180 0.0 0.0 0.00 0.00 0.00 81 1010.8
20260508072318 4 180 0.0 0.0 0.00 0.00 0.00 80 1010.8
20260508071824 4 180 0.0 0.0 0.00 0.00 0.00 80 1010.9
20260508071326 4 180 0.0 0.0 0.00 0.00 0.00 80 1010.9
20260508070830 4 180 0.0 0.0 0.00 0.00 0.00 80 1010.9
20260508070332 4 180 0.0 0.0 0.00 0.00 0.00 80 1011.0
20260508065815 5 180 0.0 0.0 0.00 0.00 0.00 79 1011.0
20260508065322 5 180 0.0 0.0 0.00 0.00 0.00 79 1011.1
20260508064823 5 180 0.0 0.0 0.00 0.00 0.00 79 1011.1
20260508064332 5 180 0.0 0.0 0.00 0.00 0.00 79 1011.2
20260508063831 5 180 0.0 0.0 0.00 0.00 0.00 79 1011.1
20260508063338 5 180 0.0 0.0 0.00 0.00 0.00 79 1011.1
20260508062817 5 180 0.0 0.0 0.00 0.00 0.00 78 1011.2
20260508062323 5 180 0.0 0.0 0.00 0.00 0.00 78 1011.2
20260508061855 5 180 0.0 0.0 0.00 0.00 0.00 78 1011.2
20260508061338 5 180 0.0 0.0 0.00 0.00 0.00 78 1011.3
20260508060841 5 180 0.0 0.0 0.00 0.00 0.00 77 1011.2
20260508060330 5 180 0.0 0.0 0.00 0.00 0.00 77 1011.3
20260508055834 5 180 0.0 0.0 0.00 0.00 0.00 77 1011.3
20260508055321 5 180 0.0 0.0 0.00 0.00 0.00 77 1011.2
20260508054822 5 180 0.0 0.0 0.00 0.00 0.00 76 1011.4
20260508054331 5 180 0.0 0.0 0.00 0.00 0.00 76 1011.5
20260508053835 5 180 0.0 0.0 0.00 0.00 0.00 76 1011.3
20260508053319 5 180 0.0 0.0 0.00 0.00 0.00 75 1011.3
20260508052850 5 180 0.0 0.0 0.00 0.00 0.00 75 1011.2
20260508052331 5 180 0.0 0.0 0.00 0.00 0.00 75 1011.3
20260508051837 6 180 0.0 0.0 0.00 0.00 0.00 74 1011.2
20260508051344 6 180 0.0 0.0 0.00 0.00 0.00 74 1011.2
20260508050822 6 180 0.0 0.0 0.00 0.00 0.00 74 1011.0
20260508050334 6 180 0.0 0.0 0.00 0.00 0.00 74 1011.1
20260508045832 6 180 0.0 0.0 0.00 0.00 0.00 73 1011.1
20260508045340 6 180 0.0 0.0 0.00 0.00 0.00 73 1011.1
20260508044822 6 180 0.0 0.0 0.00 0.00 0.00 73 1011.1
20260508044320 6 180 0.0 0.0 0.00 0.00 0.00 73 1011.0
20260508043820 6 180 0.0 0.0 0.00 0.00 0.00 73 1011.0
20260508043331 6 180 0.0 0.0 0.00 0.00 0.00 73 1011.0
20260508042838 6 180 0.0 0.0 0.00 0.00 0.00 73 1011.0
20260508042340 6 180 0.0 0.0 0.00 0.00 0.00 73 1011.0
20260508041842 6 180 0.0 0.0 0.00 0.00 0.00 73 1011.0
20260508041330 6 180 0.0 0.0 0.00 0.00 0.00 73 1010.9
20260508040903 6 180 0.0 0.0 0.00 0.00 0.00 73 1010.9
20260508040325 7 180 0.0 0.0 0.00 0.00 0.00 73 1010.8
20260508035828 7 180 0.0 0.0 0.00 0.00 0.00 73 1010.8
20260508035336 7 180 0.0 0.0 0.00 0.00 0.00 73 1010.8
20260508034832 7 180 0.0 0.0 0.00 0.00 0.00 73 1010.7
20260508034335 7 180 0.0 0.0 0.00 0.00 0.00 73 1010.7
20260508033844 7 180 0.0 0.0 0.00 0.00 0.00 73 1010.7
20260508033328 7 180 0.0 0.0 0.00 0.00 0.00 73 1010.7
20260508032832 7 180 0.0 0.0 0.00 0.00 0.00 73 1010.7
20260508032318 7 180 0.0 0.0 0.00 0.00 0.00 72 1010.7
20260508031831 7 180 0.0 0.0 0.00 0.00 0.00 72 1010.8
20260508031321 7 180 0.0 0.0 0.00 0.00 0.00 72 1010.8
20260508030827 7 180 0.0 0.0 0.00 0.00 0.00 72 1010.8
20260508030330 7 180 0.0 0.0 0.00 0.00 0.00 71 1010.9
20260508025833 7 180 0.0 0.0 0.00 0.00 0.00 71 1010.9
20260508025347 7 180 0.0 0.0 0.00 0.00 0.00 70 1010.8
20260508024828 7 180 0.0 0.0 0.00 0.00 0.00 70 1010.8
20260508024316 7 180 0.0 1.6 0.00 0.00 0.00 70 1010.8
20260508023827 8 180 0.0 1.6 0.00 0.00 0.00 69 1010.8
20260508023336 8 180 0.0 1.6 0.00 0.00 0.00 69 1010.7
20260508022821 8 180 0.0 0.0 0.00 0.00 0.00 68 1010.7
20260508022326 8 180 0.0 0.0 0.00 0.00 0.00 68 1010.7
20260508021833 8 180 0.0 1.6 0.00 0.00 0.00 68 1010.6
20260508021343 8 180 0.0 1.6 0.00 0.00 0.00 68 1010.5
20260508020822 8 180 0.0 1.6 0.00 0.00 0.00 68 1010.5
20260508020330 8 180 0.0 0.0 0.00 0.00 0.00 67 1010.4
20260508015838 8 180 0.0 0.0 0.00 0.00 0.00 67 1010.3
20260508015338 9 180 0.0 1.6 0.00 0.00 0.00 67 1010.3
20260508014819 9 180 0.0 0.0 0.00 0.00 0.00 66 1010.2
20260508014325 9 180 0.0 0.0 0.00 0.00 0.00 66 1010.3
20260508013855 10 180 0.0 0.0 0.00 0.00 0.00 65 1010.2
20260508013342 10 180 0.0 0.0 0.00 0.00 0.00 66 1010.1
20260508012852 10 180 0.0 0.0 0.00 0.00 0.00 64 1010.1
20260508012342 10 180 0.0 0.0 0.00 0.00 0.00 63 1010.0
20260508011818 10 180 0.0 0.0 0.00 0.00 0.00 63 1009.9
20260508011320 10 180 0.0 0.0 0.00 0.00 0.00 64 1009.9
20260508010847 10 180 0.0 0.0 0.00 0.00 0.00 64 1009.8
20260508010340 10 180 0.0 0.0 0.00 0.00 0.00 64 1009.8
20260508005817 11 180 0.0 0.0 0.00 0.00 0.00 63 1009.8
20260508005324 11 180 0.0 0.0 0.00 0.00 0.00 63 1009.7
20260508004834 11 180 0.0 0.0 0.00 0.00 0.00 64 1009.7
20260508004337 11 180 0.0 0.0 0.00 0.00 0.00 62 1009.7
20260508003839 11 180 0.0 0.0 0.00 0.00 0.00 62 1009.7
20260508003347 11 180 0.0 0.0 0.00 0.00 0.00 62 1009.7
20260508002822 11 180 0.0 1.6 0.00 0.00 0.00 60 1009.7
20260508002328 11 180 0.0 4.8 0.00 0.00 0.00 59 1009.7
20260508001838 11 180 0.0 3.2 0.00 0.00 0.00 60 1009.8
20260508001321 12 180 0.0 3.2 0.00 0.00 0.00 58 1009.8
20260508000828 12 180 0.0 1.6 0.00 0.00 0.00 58 1009.8
20260508000405 12 180 0.0 3.2 0.00 0.00 0.00 59 1009.8
20260507235826 12 180 1.6 3.2 0.00 0.00 0.00 57 1009.8
20260507235335 12 180 0.0 3.2 0.00 0.00 0.00 57 1009.8
20260507234834 12 180 1.6 3.2 0.00 0.00 0.00 58 1009.7
20260507234339 12 180 0.0 3.2 0.00 0.00 0.00 58 1009.7
20260507233847 12 180 1.6 3.2 0.00 0.00 0.00 58 1009.7
20260507233337 12 180 1.6 4.8 0.00 0.00 0.00 57 1009.7
20260507232817 12 186 1.6 4.8 0.00 0.00 0.00 60 1009.8
20260507232325 13 164 1.6 3.2 0.00 0.00 0.00 57 1009.7
20260507231827 13 164 1.6 3.2 0.00 0.00 0.00 57 1009.8
20260507231332 13 164 0.0 3.2 0.00 0.00 0.00 55 1009.8
20260507230817 13 164 1.6 3.2 0.00 0.00 0.00 55 1009.8
20260507230319 13 163 0.0 4.8 0.00 0.00 0.00 52 1009.9
20260507225826 13 160 1.6 4.8 0.00 0.00 0.00 55 1009.9
20260507225333 13 190 1.6 3.2 0.00 0.00 0.00 52 1009.9
20260507224837 13 190 1.6 4.8 0.00 0.00 0.00 55 1010.1
20260507224343 13 178 1.6 4.8 0.00 0.00 0.00 52 1010.1
20260507223845 13 178 1.6 4.8 0.00 0.00 0.00 51 1010.2
20260507223326 13 178 3.2 4.8 0.00 0.00 0.00 52 1010.2
20260507222836 13 178 1.6 6.4 0.00 0.00 0.00 52 1010.4
20260507222326 13 181 3.2 6.4 0.00 0.00 0.00 52 1010.4
20260507221834 13 190 1.6 4.8 0.00 0.00 0.00 49 1010.6
20260507221320 13 167 1.6 4.8 0.00 0.00 0.00 48 1010.5
20260507220826 14 163 1.6 6.4 0.00 0.00 0.00 46 1010.5
20260507220342 14 130 3.2 6.4 0.00 0.00 0.00 46 1010.4
20260507215825 14 160 3.2 6.4 0.00 0.00 0.00 48 1010.4
20260507215337 14 171 0.0 6.4 0.00 0.00 0.00 47 1010.4
20260507214816 15 171 0.0 6.4 0.00 0.00 0.00 47 1010.3
20260507214327 15 169 0.0 6.4 0.00 0.00 0.00 48 1010.3